Location: Laverne
(36.7100°N, 99.8930°W)
Time: 11:53:15
(UTC-05:00)

Daily predictions for brighter satellites

Satellite Brightness Start Highest point End
(mag) Time Altitude Azimuth Time Altitude Azimuth Time Altitude Azimuth
NOSS 3-2 (C) 3.7 19:36:39 10° SW 19:42:40 81° WNW 19:49:13 10° NNE
ATLAS CENTAUR R/B 3.5 19:43:46 10° NW 19:47:19 29° WSW 19:50:38 10° S
Cosmos 1076 Rocket 3.7 19:47:38 10° N 19:51:52 49° E 19:56:05 10° SSE
Abrixas 2.9 19:49:06 10° WSW 19:52:03 59° NNW 19:55:02 10° NE
ASTRO E2 4.0 19:48:58 10° WSW 19:52:37 33° S 19:56:15 10° SE
Spot 2 Rocket 4.4 19:49:12 10° ESE 19:53:22 27° ENE 19:57:32 10° NNE
Cosmos 1072 Rocket 4.4 19:47:20 10° S 19:53:23 75° E 19:59:30 10° N
Cosmos 1766 Rocket 3.8 19:53:13 10° N 19:57:25 46° E 20:01:35 10° SSE
ATLAS 5 CENTAUR R/B 2.5 19:54:14 10° SW 19:58:54 58° NW 20:03:57 10° NNE
Cosmos-2242 3.4 19:55:08 10° SSE 19:59:15 43° E 20:03:25 10° NNE
MSX 4.2 19:54:30 10° S 20:00:13 72° WSW 20:05:59 10° NNW
Cosmos 1269 Rocket 4.3 19:56:49 10° S 20:01:50 46° ESE 20:06:51 10° NNE
SJ-6B 3.0 19:58:52 10° SSE 20:02:43 51° ENE 20:06:41 10° N
FREGAT/IRIS 3.3 20:01:49 10° SE 20:04:40 35° ENE 20:07:32 10° N
Milstar 3 4.4 19:56:16 10° WSW 20:05:04 57° S 20:20:49 12° ESE
CZ-2C R/B 4.4 20:01:44 10° SSW 20:06:08 32° W 20:10:27 10° NNW
Cosmos 1346 4.1 20:04:25 10° NNE 20:06:56 25° ENE 20:09:27 10° SE
Cosmos 1544 3.6 20:03:53 10° SSE 20:07:21 38° E 20:10:51 10° NNE
Cosmos 1484 Rocket 3.3 20:05:32 10° S 20:09:18 62° WSW 20:13:12 10° NNW
SAR-Lupe-4 3.4 20:07:08 10° SSE 20:10:41 78° ENE 20:14:15 10° N
METEOR-M 4.2 20:12:49 10° SSE 20:18:00 54° ENE 20:23:13 10° N
USA 215 3.4 20:12:17 10° NE 20:18:39 53° SE 20:24:58 10° SSW
Cosmos 1758 3.3 20:14:36 10° S 20:18:42 89° E 20:22:49 10° N
OAO 3 Rocket 3.3 20:16:32 10° W 20:21:13 66° S 20:24:39 19° ESE
Cosmos 1842 Rocket 3.8 20:24:03 10° SSE 20:28:07 42° E 20:32:13 10° NNE
Cosmos 1408 Rocket 3.9 20:23:54 10° NNW 20:28:13 69° W 20:32:28 10° S
Cosmos 2034 Rocket 4.1 20:22:22 10° S 20:28:38 85° W 20:35:01 10° N
Cosmos 1500 Rocket 4.1 20:25:22 10° NNE 20:29:28 36° ENE 20:32:52 14° SE
SL-16 R/B 4.4 20:25:12 10° WSW 20:29:56 27° WNW 20:34:43 10° N
Helios 1A 3.0 20:31:47 10° SSE 20:35:54 58° ENE 20:40:03 10° N
FENGYUN 3A 4.1 20:32:29 14° SE 20:36:44 40° ENE 20:41:44 10° N
Spot 1 4.1 20:32:25 10° SSE 20:37:08 83° ENE 20:41:36 10° NNW
Meteor 1-21 Rocket 4.1 20:33:44 10° N 20:39:18 90° E 20:44:50 10° S
CZ-2D R/B 4.1 20:41:51 29° ENE 20:41:51 29° ENE 20:45:07 10° N
Meteor 1-29 2.8 20:40:57 10° NNE 20:44:28 80° ESE 20:47:56 10° S
GPS 2-04 Rocket1 2.3 20:45:33 10° W 20:49:00 72° S 20:49:39 54° ESE
H-2A R/B 3.4 20:52:22 37° ENE 20:52:22 37° ENE 20:55:35 10° N
Resurs 1-3 3.5 20:52:53 10° SSE 20:57:16 89° WSW 21:01:41 10° NNW
ASTEX 1 3.2 20:53:36 10° N 20:58:31 72° E 21:03:22 10° S
Cosmos 1743 Rocket 3.9 20:54:41 10° NNW 20:59:06 68° W 21:03:26 10° S
ALOS 2.1 20:58:48 27° SSE 21:01:17 71° ENE 21:05:57 10° N
Cosmos 1943 Rocket 3.3 20:58:31 10° N 21:02:44 25° NE 21:02:44 25° NE
Resurs 01 Rocket 2.3 21:01:13 10° S 21:05:34 54° W 21:09:57 10° NNW
Cosmos 2251 Rocket 3.5 21:00:49 10° S 21:05:51 52° ESE 21:10:57 10° NNE
Helios 1B rocket 3.6 21:03:07 10° N 21:07:03 44° WNW 21:10:57 10° SW
Meteosat 1 Rocket2 4.4 21:01:47 10° WSW 21:08:15 35° S 21:09:24 32° SSE
ISS -1.1 21:06:50 10° W 21:09:24 21° NNW 21:10:28 18° N
Cosmos 1943 3.3 21:04:24 10° SSW 21:10:01 77° WNW 21:15:40 10° NNE
Cosmos 2369 Rocket 2.1 21:05:32 10° NNW 21:11:12 70° ENE 21:12:52 46° SE
Cosmos 1733 3.7 21:10:33 10° SSW 21:14:22 60° W 21:18:12 10° N
Gbstr 26 Del rocket 4.0 21:11:59 10° WSW 21:16:17 49° NNW 21:19:04 25° NNE
Cosmos 839 Rocket 4.1 21:10:52 10° NNW 21:18:15 67° ENE 21:20:01 48° ESE
CENTAUR R/B 2.9 21:12:20 10° SW 21:18:15 63° NW 21:24:57 10° NNE
Cosmos 1470 4.2 21:18:18 10° SSW 21:21:56 37° W 21:25:34 10° N
Cosmos 2263 4.1 21:17:26 10° NNW 21:23:10 63° ENE 21:23:31 61° E
Cosmos 1674 4.0 21:20:56 10° NNW 21:24:34 40° W 21:26:29 23° SSW
GP-B 3.3 21:26:33 10° N 21:30:26 66° NNW 21:30:26 66° NNW
Cosmos 2279 Rocket 3.8 21:32:29 67° ESE 21:32:45 67° E 21:38:53 10° NNE
Cosmos 2151 4.0 21:35:17 10° NNW 21:38:14 42° NNW 21:38:14 42° NNW
SL-24 R/B - RUBIN 2 4.4 21:41:02 10° NNW 21:47:14 70° NNE 21:47:14 70° NNE
Meteor 2-1 Rocket 4.3 21:50:46 73° NNW 21:50:46 73° NNW 21:56:07 10° N
Cosmos 1655 Rocket 3.9 21:48:46 10° N 21:54:59 80° W 21:55:08 79° WSW
Cosmos 2026 Rocket 4.1 21:49:07 10° N 21:55:12 71° W 21:55:57 64° SW
USA 215 4.2 21:56:44 17° NNE 22:01:31 43° NW 22:07:36 10° WSW
Cosmos 1943 Rocket 4.1 22:41:48 10° NW 22:44:16 24° NW 22:44:16 24° NW
